DECAYED

OBJECT C, 44488 (Decayed)

Orbit data source: Space-Track

You're viewing an Uncataloged Satellite

Recently launched and/or uncataloged satellites may have evolving metadata. Metadata may include but not limited to: Owner, Maufacturer, Bus, Motor, and Mission.

OBJECT C, 44488 was a satellite owned by Guoxing (CN) in LEO that was launched on Sat, 17 Aug 2019 UTC via a JIELONG-1 launch vehicle from the Jiuquan Satellite Launch Center, China (JSC). Unknown objects in Earth's orbit typically refer to objects detected orbiting the Earth but have not yet been identified or cataloged. These objects could be anything from previously untracked satellites, spent rocket stages, debris from satellite collisions, or even natural meteoroids temporarily captured by Earth's gravity. This object's orbit decayed before it could be identified.

Not visible in the next 10 days
OBJECT C details
Identifier
44488, 2019-052C
Orbit
Decayed
Last TLE update1 month ago
Origin
Flag of CNGuoxing (CN / PRC)
ManufacturerWeina
MissionDecayed Commercial Technology
Bus & MotorMN10, Unknown motor
Mass~20 kg wet, ~20 kg dry
Launch date (UTC)
2019-08-17 (5 years ago)
Launch vehicle
JIELONG-1
Launch site
Jiuquan Satellite Launch Center, China (JSC)
Object typeUnknown
Shape & HBRBox + 3 Pan, 1 m
Radar Cross Section0.225 m², Medium (>0.1 m² and < 1m²)

Expand to show TLE details & history

TLE from 1 month ago
0 OBJECT C
1 44488U 19052C   24319.98751478  .17349390  25414-5  44692-3 0  9998
2 44488  97.3701  40.4158 0010034 275.6713  84.3445 16.45152244290595
Epoch: 2024-11-14T23:42Z
Definitive object data (Epoch: 2024-11-14T23:42:01.276Z)
Latitude-0.00005°
Longitude-9.65135°
Altitude154.752 km
Speed7.814 km/s
True Right ascension02h 41m 39s
True Declination0° 00' 00"
Sunlit
Object was in full shadow at TLE epoch
Visualization observer readout
Observer readout values are unavailable because the object's trajectory could not be propagated. This is usually caused when the trajectory data is faulty or the object's orbit has decayed.
Visualization observer readout
Observer readout values are unavailable because the object's trajectory could not be propagated. This is usually caused when the trajectory data is faulty or the object's orbit has decayed.
Orbital elements
Apogee altitude155.481 km
Perigee altitude142.383 km
Semi-major axis6,527.069 km
Eccentricity0.0010034
Inclination97.3701°
RAAN40.4158°
Arg. of periapsis275.6713°
True anomaly84.45894°
Mean anomaly84.3445°
Eccentric anomaly84.40172°
Mean motion4.11591 °/min
BSTAR0.00044692
Orbital period87.47 mins
Loading maneuver chart data...
Loading historical data...
Loading historical data...
Loading historical data...
Loading historical data...
Loading historical data...
Loading historical data...
Loading historical data...
Other satellites on launch #52 in the year 2019 (2019-08-17 UTC)

OBJECT C Visibility forecast

Observer location: undefined°, undefined

This satellite is decayed
Span
Click to sort rows by Start time (UTC) header in descending order
Start Az.
Max El. time (UTC)
Max El. Az.
Max El.
End time (UTC)
End Az.
|